SCP
0 0 0 0 0 0 0 0 0 0 0 0 0 0 0 0 0 0 0 0 0 0 0 0 0 0 0 0 0 0 0 0 0 0 0 0 0 0 0 0 0 0 0
0 0 0 0 0 0 0 0 0 0 0 0 0 0 0 0 0 0 0 0 0 0 0 0 0 0 0 0 0 0 0 0 0 0 0 0 0 0 0 0 0 0 0
0 0 0 0 0 0 0 0 0 0 0 0 0 0 0 0 0 0 0 0 0 0 0 0 0 0 0 0 0 0 0 0 0 0 0 0 0 0 0 0 0 0 0
0 0 0 0 0 0 0 0 0 0 0 0 0 0 0 0 0 0 0 0 0 0 0 0 0 0 0 0 0 0 0 0 0 0 0 0 0 0 0 0 0 0 0
0 0 0 0 0 0 0 0 0 0 0 0 0 0 0 0 0 0 0 0 0 0 0 0 0 0 0 0 0 0 0 0 0 0 0 0 0 0 0 0 0 0 0
0 0 0 0 0 0 0 0 0 0 0 0 0 0 0 0 0 0 0 0 0 0 0 0 0 0 0 0 0 0 0 0 0 0 0 0 0 0 0 0 0 0 0
0 0 0 0 0 0 0 0 0 0 0 0 0 0 0 0 0 0 0 0 0 0 0 0 0 0 0 0 0 0 0 0 0 0 0 0 0 0 0 0 0 0 0
0 0 0 0 0 0 0 0 0 0 0 0 0 0 0 0 0 0 0 0 0 0 0 0 0 0 0 0 0 0 0 0 0 0 0 0 0 0 0 0 0 0 0
0 0 0 0 0 0 0 0 0 0 0 0 0 0 0 0 0 0 0 0 0 0 0 0 0 0 0 0 0 0 0 0 0 0 0 0 0 0 0 0 0 0 0
0 0 0 0 0 0 0 0 0 0 0 0 0 0 0 0 0 0 0 0 0 0 0 0 0 0 0 0 0 0 0 0 0 0 0 0 0 0 0 0 0 0 0
0 0 0 0 0 0 0 0 0 0 0 0 0 0 0 0 0 0 0 0 0 0 0 0 0 0 0 0 0 0 0 0 0 0 0 0 0 0 0 0 0 0 0
0 0 0 0 0 0 0 0 0 0 0 0 0 0 0 0 0 0 0 0 0 0 0 0 0 0 0 0 0 0 0 0 0 0 0 0 0 0 0 0 0 0 0
0 0 0 0 0 0 0 0 0 0 0 0 0 0 0 0 0 0 0 0 0 0 0 0 0 0 0 0 0 0 0 0 0 0 0 0 0 0 0 0 0 0 0
0 0 0 0 0 0 0 0 0 0 0 0 0 0 0 0 0 0 0 0 0 0 0 0 0 0 0 0 0 0 0 0 0 0 0 0 0 0 0 0 0 0 0
0 0 0 0 0 0 0 0 0 0 0 0 0 0 0 0 0 0 0 0 0 0 0 0 0 0 0 0 0 0 0 0 0 0 0 0 0 0 0 0 0 0 0
0 0 0 0 0 0 0 0 0 0 0 0 0 0 0 0 0 0 0 0 0 0 0 0 0 0 0 0 0 0 0 0 0 0 0 0 0 0 0 0 0 0 0
0 0 0 0 0 0 0 0 0 0 0 0 0 0 0 0 0 0 0 0 0 0 0 0 0 0 0 0 0 0 0 0 0 0 0 0 0 0 0 0 0 0 0
0 0 0 0 0 0 0 0 0 0 0 0 0 0 0 0 0 0 0 0 0 0 0 0 0 0 0 0 0 0 0 0 0 0 0 0 0 0 0 0 0 0 0
0 0 0 0 0 0 0 0 0 0 0 0 0 0 0 0 0 0 0 0 0 0 0 0 0 0 0 0 0 0 0 0 0 0 0 0 0 0 0 0 0 0 0
0 0 0 0 0 0 0 0 0 0 0 0 0 0 0 0 0 0 0 0 0 0 0 0 0 0 0 0 0 0 0 0 0 0 0 0 0 0 0 0 0 0 0
0 0 0 0 0 0 0 0 0 0 0 0 0 0 0 0 0 0 0 0 0 0 0 0 0 0 0 0 0 0 0 0 0 0 0 0 0 0 0 0 0 0 0
0 0 0 0 0 0 0 0 0 0 0 0 0 0 0 0 0 0 0 0 0 0 0 0 0 0 0 0 0 0 0 0 0 0 0 0 0 0 0 0 0 0 0
0 0 0 0 0 0 0 0 0 0 0 0 0 0 0 0 0 0 0 0 0 0 0 0 0 0 0 0 0 0 0 0 0 0 0 0 0 0 0 0 0 0 0
0 0 0 0 0 0 0 0 0 0 0 0 0 0 0 0 0 0 0 0 0 0 0 0 0 0 0 0 0 0 0 0 0 0 0 0 0 0 0 0 0 0 0
0 0 0 0 0 0 0 0 0 0 0 0 0 0 0 0 0 0 0 0 0 0 0 0 0 0 0 0 0 0 0 0 0 0 0 0 0 0 0 0 0 0 0
0 0 0 0 0 0 0 0 0 0 0 0 0 0 0 0 0 0 0 0 -0 -0 -0 0 0 0 0 0 0 0 0 0 0 0 0 0 0 0 0 0 0 0 0
Wind_Speed
2 2 2 1 2 2 1 1 1 0 0 0 0 0 1 1 1 1 2 2 2 2 2 2 3 2 2 1 1 2 2 2 4 2 1 1 2 2 2 2 2 2 1
2 2 1 1 1 1 1 1 1 1 0 0 1 1 1 1 1 2 2 2 2 2 2 2 3 2 2 1 1 2 2 2 2 3 1 1 2 2 2 2 1 1 1
2 2 1 1 1 1 1 1 1 1 1 1 1 1 2 1 2 2 3 3 2 2 2 3 3 2 3 2 2 2 2 2 1 2 2 1 1 1 1 2 1 1 2
2 2 1 1 0 0 0 1 1 1 1 1 1 2 2 2 2 2 2 2 2 3 3 3 3 3 3 3 2 2 2 2 1 2 2 2 1 1 1 2 2 1 2
2 1 1 1 0 0 0 1 1 1 2 1 1 2 2 2 2 2 2 3 3 3 3 3 3 3 4 3 3 3 2 2 2 2 2 2 2 2 2 2 2 2 2
2 2 1 1 0 0 1 1 1 2 2 2 2 2 2 2 4 5 4 3 3 3 3 2 3 2 3 3 4 4 4 3 3 3 3 4 4 3 2 2 2 2 3
1 1 1 1 1 0 1 1 2 2 2 2 2 2 3 3 5 5 5 3 3 3 3 3 2 2 2 2 2 3 3 4 5 4 4 5 4 3 3 3 3 3 3
1 1 1 1 1 1 1 2 2 2 2 2 3 3 3 3 5 5 4 3 2 3 3 3 3 3 3 3 2 3 3 3 4 3 3 4 3 3 3 4 3 2 3
1 1 1 1 1 1 2 2 2 2 2 3 3 3 3 4 5 5 4 2 2 3 3 3 3 3 5 4 3 4 4 3 3 4 4 5 4 4 3 1 2 2 3
2 2 1 1 2 2 2 2 2 2 3 3 3 3 3 3 5 5 4 2 2 2 2 3 4 4 5 5 4 4 5 4 3 3 3 3 3 3 3 3 3 3 3
1 1 1 1 2 2 2 2 2 2 2 3 3 3 3 3 5 5 5 2 2 2 3 3 3 6 6 7 6 5 6 5 3 3 3 2 2 2 2 2 3 4 4
1 1 2 2 2 2 2 2 2 2 2 3 3 3 3 3 4 5 6 5 4 3 3 3 4 7 8 8 6 6 7 4 2 3 3 3 3 3 2 2 2 2 3
1 2 2 2 2 2 2 2 2 2 2 3 3 3 3 2 3 5 6 6 6 4 3 6 7 8 8 5 6 6 4 3 2 3 4 4 3 2 2 1 1 2 2
2 2 2 2 3 2 2 2 2 3 3 3 3 3 3 3 3 3 3 3 4 4 3 4 6 7 6 5 4 3 3 3 3 4 3 2 2 2 2 2 2 1 2
2 3 3 3 3 2 2 3 3 4 4 4 4 4 4 4 5 8 5 4 3 4 3 2 2 2 2 2 2 2 2 2 3 3 3 3 2 2 2 2 2 2 3
3 3 2 2 2 2 2 2 5 5 7 8 8 7 6 8 9 9 9 8 8 6 3 2 3 2 3 3 3 3 3 3 3 3 3 3 3 4 3 2 2 3 4
3 3 3 3 3 2 2 2 3 4 6 7 8 8 8 8 8 8 8 8 7 5 3 2 3 3 3 3 3 3 4 4 3 3 4 4 4 4 3 4 3 3 4
3 4 3 3 3 3 3 3 3 3 4 4 6 8 8 8 8 8 7 5 3 3 3 3 3 3 3 3 3 3 3 3 3 4 4 4 4 4 4 4 4 5 4
3 3 3 3 3 3 3 3 3 3 4 4 4 5 6 7 7 7 5 2 3 3 3 3 3 3 3 3 3 3 3 3 3 3 4 4 4 4 4 4 4 5 4
3 4 3 3 2 2 3 3 3 3 4 4 4 4 3 3 3 3 3 3 3 4 4 4 3 3 3 3 3 3 3 3 3 3 4 4 4 4 5 5 5 5 4
2 3 3 3 3 3 3 3 4 4 4 4 4 5 6 4 3 3 3 3 4 4 4 4 3 3 3 3 3 3 4 4 4 4 4 4 4 4 4 4 5 5 4
2 2 2 3 3 3 3 3 3 4 4 5 4 5 7 4 3 3 4 4 4 3 3 3 4 3 3 3 4 4 4 4 4 3 3 4 4 4 4 4 4 4 4
2 2 2 2 3 3 3 3 4 4 4 4 4 4 3 3 4 4 4 4 3 3 3 3 4 4 3 3 3 4 5 5 4 4 4 4 4 4 4 5 5 5 5
2 3 3 3 3 3 3 4 4 4 4 4 4 4 4 4 4 4 4 3 3 3 3 3 3 5 6 4 4 4 4 5 4 4 6 5 5 4 4 4 5 5 5
3 3 3 3 3 3 3 4 4 4 4 4 4 4 3 3 3 3 3 3 3 3 4 4 3 4 5 6 6 5 6 7 6 5 5 5 5 5 5 5 4 4 4
3 3 3 3 3 3 3 4 4 4 4 4 3 3 3 3 3 3 3 3 3 3 4 4 4 5 6 5 6 7 7 8 7 6 4 4 5 4 4 4 4 4 4
Wind_Direction
86 73 65 65 75 75 75 55 60 86 119 175 203 285 284 284 283 281 281 279 261 265 267 259 260 274 257 246 248 261 254 228 238 252 209 174 182 206 233 229 225 219 254
112 97 87 59 63 70 57 31 20 5 324 226 210 241 264 279 283 280 280 284 265 265 268 266 271 276 253 244 243 250 248 241 231 248 245 207 216 213 220 232 246 251 251
131 131 123 96 76 54 25 11 1 334 322 314 271 239 243 253 266 275 273 274 274 274 275 273 276 260 250 250 245 251 254 261 241 241 255 238 230 233 244 256 266 270 275
141 144 150 162 190 237 344 352 330 308 298 281 293 285 271 269 273 275 279 276 277 274 272 270 268 248 243 246 246 247 249 247 228 226 253 245 231 220 217 235 255 251 270
145 159 179 179 178 16 348 322 318 304 294 292 287 285 292 286 273 275 274 266 265 271 274 275 268 256 257 258 256 245 241 238 232 229 241 251 232 218 228 240 251 266 263
167 193 188 159 150 280 307 310 315 307 302 301 292 288 282 285 291 293 290 261 258 255 258 266 266 253 254 266 271 267 257 242 237 239 243 242 247 236 241 236 247 264 273
180 190 178 176 201 256 297 308 298 290 292 297 291 285 283 283 290 292 294 283 259 250 250 249 252 250 243 237 256 277 279 271 259 249 244 246 251 241 232 240 239 248 264
184 201 201 187 227 273 274 275 286 294 287 283 286 284 285 284 293 296 301 297 273 260 253 248 245 239 241 246 239 251 260 264 262 255 242 252 252 247 238 238 241 263 282
207 229 232 214 232 250 255 264 281 289 290 287 286 283 284 286 288 300 311 294 277 277 275 266 254 245 247 254 243 243 257 266 278 271 264 267 263 256 247 227 219 226 265
229 235 242 231 228 242 256 272 286 286 285 293 291 286 279 276 279 289 298 287 275 278 279 275 267 267 260 254 247 240 246 254 260 270 273 269 260 244 243 230 215 219 246
261 268 262 246 240 246 260 274 278 284 287 287 288 292 285 281 275 279 284 287 264 265 265 269 269 271 270 266 263 255 254 254 249 250 250 246 244 237 236 232 225 217 226
260 259 263 263 257 245 245 267 268 261 265 272 281 289 288 289 283 279 286 291 292 271 264 266 268 271 272 274 270 262 263 261 237 230 232 233 237 239 238 230 231 240 245
252 257 268 272 264 249 234 243 254 249 252 263 263 273 284 291 289 292 291 292 292 289 269 268 275 275 274 271 266 261 254 234 222 228 232 236 236 233 229 235 237 238 261
244 257 260 261 263 246 239 236 240 242 247 255 259 266 277 278 276 276 273 277 281 287 278 269 272 274 276 276 263 248 231 222 222 231 236 238 235 226 229 226 229 223 261
250 257 259 255 253 249 243 237 249 241 242 252 251 251 257 265 266 274 277 270 266 263 281 282 276 268 260 253 246 244 233 228 229 230 222 222 224 227 232 221 220 225 237
245 251 252 254 256 254 262 287 283 277 279 276 271 272 271 273 279 276 279 281 281 278 280 254 250 243 242 244 242 250 244 234 232 225 223 224 222 221 226 220 217 222 233
233 248 255 254 252 256 257 263 288 302 295 289 284 282 282 285 284 279 280 282 276 272 254 242 244 242 243 243 241 242 246 243 232 223 222 225 226 225 218 217 216 222 234
238 245 243 247 251 251 253 254 258 269 287 289 288 286 289 293 291 285 285 286 267 251 238 239 243 245 249 252 252 251 252 248 233 229 224 219 219 223 222 221 219 222 229
240 244 241 246 250 253 256 258 257 258 266 279 292 291 290 295 296 289 286 253 248 247 246 249 248 247 249 248 250 251 247 246 243 236 231 222 219 219 222 222 223 225 225
242 250 253 248 248 252 254 256 257 258 263 265 269 276 284 287 276 274 264 255 253 252 248 250 252 248 251 252 252 254 251 245 243 242 240 232 222 216 220 221 219 218 225
246 249 246 249 244 244 249 254 256 257 260 265 266 270 279 273 262 258 259 257 257 259 256 255 255 253 249 248 248 249 249 250 245 241 242 238 226 221 220 219 219 219 222
239 242 243 247 254 252 253 256 257 258 260 265 273 275 276 276 263 263 262 260 259 259 254 252 256 254 248 245 246 247 248 249 246 239 239 238 231 226 223 220 220 220 217
239 247 255 256 257 261 262 258 256 257 260 262 266 269 267 265 263 261 264 268 269 268 261 253 256 260 259 256 251 247 247 249 247 238 237 239 235 227 222 223 221 220 221
251 250 253 258 259 257 259 263 264 264 264 266 267 267 267 268 269 270 273 278 279 281 277 265 260 261 264 266 263 258 255 255 249 239 229 230 232 231 225 223 224 223 224
253 254 254 255 257 259 261 265 266 267 270 271 273 275 276 276 276 277 280 282 284 284 287 284 276 270 267 268 269 267 265 266 262 249 230 224 226 227 224 224 225 223 227
260 260 262 263 262 264 266 271 274 275 275 278 280 280 279 277 278 279 278 277 280 283 285 283 277 275 276 274 269 269 268 267 260 248 230 220 220 223 220 223 222 223 225